Home > Weather > Kiritimati > Past weeks

Flag for Kiribati Weather for the Past 2 Weeks in Kiritimati, Christmas Island, Kiribati

Now
88 °F

Scattered clouds.


Feels Like: 100 °F
Forecast: 81 / 86 °F
Wind: 9 mph from East

Location: Christmas / Cassidy

Current Time: Feb 9, 2016 at 3:53:14 PM

Latest Report: Feb 9, 2016 at 2:00 PM


Visibility: N/A

Pressure: 29.68 "Hg

Humidity: 70%

Dew point: 77 °F

Location of KiritimatiLocation

Historic Weather in Kiritimati — Graph

°F

Kiritimati Temperature Yesterday

Maximum temperature yesterday: 82 °F (at 2:00 PM)
Minimum temperature yesterday: 77 °F (at 6:00 AM)
Average temperature yesterday: 80 °F

High & Low Weather Summary for the Past Weeks

 TemperatureHumidityPressure
High90 °F (Feb 5, 12:00 PM)100% (Jan 25, 4:00 PM)29.86 "Hg (Jan 25, 4:00 PM)
Low75 °F (Jan 26, 2:00 PM)63% (Feb 5, 12:00 PM)29.62 "Hg (Feb 5, 2:00 PM)
Average82 °F86%29.77 "Hg
* Reported Jan 25 3:00 PM — Feb 9 2:00 PM, Kiritimati, Weather by CustomWeather, © 2016

Note: Actual official high and low records may vary slightly from our data, if they occured in-between our weather recording intervals... More about our weather records

Advertising

Kiritimati Weather History for the Previous 24 Hours

 ConditionsComfort  
Time TempWeatherWind HumidityBarometerVisibility
2:00 PM
Tue, Feb 9
88 °FScattered clouds.9 mph70%29.68 "HgN/A
1:00 PM88 °FScattered clouds.14 mph70%29.71 "HgN/A
12:00 PM90 °FBroken clouds.9 mph67%29.74 "HgN/A
10:00 AM86 °FScattered clouds.9 mph79%29.77 "HgN/A
9:00 AM86 °FScattered clouds.14 mph75%29.77 "HgN/A
8:00 AM84 °FPartly sunny.14 mph74%29.71 "HgN/A
7:00 AM79 °FOvercast.9 mph89%29.68 "HgN/A
6:00 AM79 °FScattered clouds.9 mph94%29.68 "HgN/A
5:00 AM79 °FPassing clouds.1 mph94%29.68 "HgN/A
4:00 AM79 °FPassing clouds.7 mph94%29.68 "HgN/A
3:00 AM79 °FPassing clouds.7 mph89%29.71 "HgN/A
2:00 AM79 °FPassing clouds.7 mph89%29.71 "HgN/A
1:00 AM79 °FPartly cloudy.5 mph89%29.80 "HgN/A
11:00 PM
Mon, Feb 8
79 °FOvercast.9 mph89%29.80 "HgN/A
10:00 PM79 °FOvercast.5 mph89%29.80 "HgN/A
9:00 PM79 °FOvercast.12 mph84%29.83 "HgN/A
8:00 PM79 °FDrizzle. Overcast.7 mph94%29.80 "HgN/A
7:00 PM79 °FDrizzle. Overcast.12 mph84%29.80 "HgN/A
5:00 PM81 °FCloudy.5 mph84%29.74 "HgN/A
4:00 PM81 °FRain. Cloudy.14 mph89%29.74 "HgN/A
3:00 PM81 °FLight rain. Cloudy.12 mph89%29.74 "HgN/A
Weather by CustomWeather, © 2016

See weather overviewHow to use our weather pages